,,Stat6,,Stat2,,Stat8,,Stat9,,Stat10,,Wind1,,Wind1,
time,status,PA1M_AVG,status,PR1M_SUM,status,RH1M_AVG,status,SR1M_AVG,status,TA1M_AVG,status,W1dAve1m,status,W1sAve1m,
2008-02-03, 00:00:00,VALID,917.229,VALID,0,VALID,100,VALID,0.0339617,VALID,19.7762,VALID,132,VALID,0,
2008-02-03, 00:01:00,VALID,917.221,VALID,0,VALID,100,VALID,0.0339617,VALID,19.7757,VALID,132,VALID,0,
2008-02-03, 00:02:00,VALID,917.237,VALID,0,VALID,100,VALID,0.0169808,VALID,19.7432,VALID,132,VALID,0,
2008-02-03, 00:03:00,VALID,917.242,VALID,0,VALID,100,VALID,0,VALID,19.74,VALID,132,VALID,0,
2008-02-03, 00:04:00,VALID,917.236,VALID,0,VALID,100,VALID,0,VALID,19.7732,VALID,132,VALID,0,
2008-02-03, 00:05:00,VALID,917.237,VALID,0,VALID,100,VALID,0.0169808,VALID,19.7984,VALID,132,VALID,0,
2008-02-03, 00:06:00,VALID,917.244,VALID,0,VALID,100,VALID,0.0679233,VALID,19.8084,VALID,132,VALID,0,
2008-02-03, 00:07:00,VALID,917.247,VALID,0,VALID,100,VALID,0.0339617,VALID,19.8086,VALID,132,VALID,0,
2008-02-03, 00:08:00,VALID,917.245,VALID,0,VALID,100,VALID,0.0169808,VALID,19.8286,VALID,132,VALID,0,
2008-02-03, 00:09:00,VALID,917.231,VALID,0,VALID,100,VALID,0,VALID,19.8356,VALID,132,VALID,0,
2008-02-03, 00:10:00,VALID,917.218,VALID,0,VALID,99.9964,VALID,0,VALID,19.8154,VALID,132,VALID,0,
2008-02-03, 00:11:00,VALID,917.205,VALID,0,VALID,100,VALID,0,VALID,19.8121,VALID,132,VALID,0,
2008-02-03, 00:12:00,VALID,917.2,VALID,0,VALID,99.9891,VALID,-0.0169808,VALID,19.8056,VALID,132,VALID,0,
2008-02-03, 00:13:01,VALID,917.177,VALID,0,VALID,99.9954,VALID,0,VALID,19.8091,VALID,132,VALID,0,
2008-02-03, 00:14:00,VALID,917.173,VALID,0,VALID,99.9438,VALID,0,VALID,19.8194,VALID,132,VALID,0,
2008-02-03, 00:15:00,VALID,917.157,VALID,0,VALID,99.8349,VALID,0.0169808,VALID,19.7827,VALID,132,VALID,0,
2008-02-03, 00:16:00,VALID,917.145,VALID,0,VALID,99.7345,VALID,0,VALID,19.7634,VALID,132,VALID,0,
2008-02-03, 00:17:01,VALID,917.148,VALID,0,VALID,99.7472,VALID,0.0339617,VALID,19.7342,VALID,132,VALID,0,
2008-02-03, 00:18:00,VALID,917.132,VALID,0,VALID,99.7943,VALID,0,VALID,19.7148,VALID,132,VALID,0,
2008-02-03, 00:19:00,VALID,917.13,VALID,0,VALID,99.9023,VALID,0.0169808,VALID,19.7013,VALID,138,VALID,0.492006,
2008-02-03, 00:20:00,VALID,917.126,VALID,0,VALID,99.6378,VALID,0,VALID,19.6561,VALID,149,VALID,0.730469,
2008-02-03, 00:21:01,VALID,917.132,VALID,0,VALID,99.7447,VALID,0,VALID,19.604,VALID,152,VALID,0.213663,
2008-02-03, 00:22:00,VALID,917.141,VALID,0,VALID,99.9481,VALID,0,VALID,19.5917,VALID,152,VALID,0.191964,
2008-02-03, 00:23:00,VALID,917.148,VALID,0,VALID,99.9929,VALID,0.0339617,VALID,19.5328,VALID,152,VALID,0.0513889,
2008-02-03, 00:24:00,VALID,917.151,VALID,0,VALID,100,VALID,0,VALID,19.5194,VALID,144,VALID,0,
2008-02-03, 00:25:01,VALID,917.16,VALID,0,VALID,100,VALID,0,VALID,19.5009,VALID,142,VALID,0,
2008-02-03, 00:26:00,VALID,917.146,VALID,0,VALID,100,VALID,0,VALID,19.4513,VALID,121,VALID,0.367551,
2008-02-03, 00:27:01,VALID,917.133,VALID,0,VALID,100,VALID,0,VALID,19.4161,VALID,102,VALID,0.773958,
2008-02-03, 00:28:00,VALID,917.124,VALID,0,VALID,100,VALID,0.0339617,VALID,19.3671,VALID,93,VALID,0.813953,
2008-02-03, 00:29:01,VALID,917.133,VALID,0,VALID,100,VALID,0.0339617,VALID,19.335,VALID,83,VALID,0.625,
2008-02-03, 00:30:00,VALID,917.124,VALID,0,VALID,100,VALID,0.0169808,VALID,19.3023,VALID,70,VALID,0.616235,
2008-02-03, 00:31:00,VALID,917.098,VALID,0,VALID,100,VALID,-0.0339617,VALID,19.2666,VALID,71,VALID,0.753534,
2008-02-03, 00:32:00,VALID,917.086,VALID,0,VALID,100,VALID,0,VALID,19.2309,VALID,71,VALID,0.792597,
2008-02-03, 00:33:00,VALID,917.058,VALID,0,VALID,100,VALID,0.0169808,VALID,19.2214,VALID,71,VALID,0.695685,
2008-02-03, 00:34:00,VALID,917.056,VALID,0,VALID,100,VALID,0.0169808,VALID,19.2084,VALID,71,VALID,0.520198,
2008-02-03, 00:35:01,VALID,917.029,VALID,0,VALID,100,VALID,0.0169808,VALID,19.2084,VALID,71,VALID,0.0187137,
2008-02-03, 00:36:00,VALID,917.015,VALID,0,VALID,100,VALID,0.0169808,VALID,19.2376,VALID,71,VALID,0,
2008-02-03, 00:37:00,VALID,916.987,VALID,0,VALID,100,VALID,0,VALID,19.2274,VALID,71,VALID,0,
2008-02-03, 00:38:00,VALID,916.983,VALID,0,VALID,100,VALID,0.0169808,VALID,19.2152,VALID,71,VALID,0,
2008-02-03, 00:39:00,VALID,917,VALID,0,VALID,100,VALID,0,VALID,19.2251,VALID,71,VALID,0,
2008-02-03, 00:40:00,VALID,917.002,VALID,0,VALID,100,VALID,0.0169808,VALID,19.2571,VALID,71,VALID,0,
2008-02-03, 00:41:01,VALID,917.005,VALID,0,VALID,100,VALID,0,VALID,19.2703,VALID,71,VALID,0,
2008-02-03, 00:42:00,VALID,917.006,VALID,0,VALID,100,VALID,0,VALID,19.2636,VALID,71,VALID,0,
2008-02-03, 00:43:01,VALID,917.018,VALID,0,VALID,100,VALID,0,VALID,19.277,VALID,71,VALID,0,
2008-02-03, 00:44:00,VALID,917.029,VALID,0,VALID,100,VALID,0,VALID,19.2766,VALID,71,VALID,0,
2008-02-03, 00:45:00,VALID,917.011,VALID,0,VALID,100,VALID,-0.0169808,VALID,19.2606,VALID,71,VALID,0,
2008-02-03, 00:46:00,VALID,916.991,VALID,0,VALID,100,VALID,0.0169808,VALID,19.2469,VALID,71,VALID,0,
2008-02-03, 00:47:00,VALID,916.976,VALID,0,VALID,100,VALID,0.0339617,VALID,19.2728,VALID,71,VALID,0.163061,
2008-02-03, 00:48:00,VALID,916.96,VALID,0,VALID,100,VALID,0.0169808,VALID,19.2374,VALID,71,VALID,0,
2008-02-03, 00:49:01,VALID,916.948,VALID,0,VALID,100,VALID,0.0339617,VALID,19.2441,VALID,71,VALID,0,
2008-02-03, 00:50:00,VALID,916.929,VALID,0,VALID,100,VALID,-0.0169808,VALID,19.2504,VALID,71,VALID,0,
2008-02-03, 00:51:00,VALID,916.927,VALID,0,VALID,100,VALID,0.0509425,VALID,19.2895,VALID,71,VALID,0,
2008-02-03, 00:52:00,VALID,916.912,VALID,0,VALID,100,VALID,0,VALID,19.2893,VALID,71,VALID,0,
2008-02-03, 00:53:01,VALID,916.909,VALID,0,VALID,100,VALID,0,VALID,19.2826,VALID,71,VALID,0,
2008-02-03, 00:54:00,VALID,916.901,VALID,0,VALID,100,VALID,0,VALID,19.3152,VALID,71,VALID,0,
2008-02-03, 00:55:01,VALID,916.897,VALID,0,VALID,100,VALID,0.0169808,VALID,19.309,VALID,71,VALID,0,
2008-02-03, 00:56:00,VALID,916.867,VALID,0,VALID,100,VALID,0,VALID,19.3352,VALID,71,VALID,0,
2008-02-03, 00:57:00,VALID,916.851,VALID,0,VALID,100,VALID,-0.0339617,VALID,19.3255,VALID,71,VALID,0.0960582,
2008-02-03, 00:58:00,VALID,916.835,VALID,0,VALID,100,VALID,-0.101885,VALID,19.307,VALID,71,VALID,0,
2008-02-03, 00:59:01,VALID,916.803,VALID,0,VALID,100,VALID,-0.101885,VALID,19.3172,VALID,71,VALID,0,
2008-02-03, 01:00:01,VALID,916.769,VALID,0,VALID,100,VALID,-0.101885,VALID,19.307,VALID,71,VALID,0,
2008-02-03, 01:01:01,VALID,916.728,VALID,0,VALID,100,VALID,-0.0849042,VALID,19.2873,VALID,71,VALID,0,
2008-02-03, 01:02:01,VALID,916.709,VALID,0,VALID,100,VALID,-0.0679233,VALID,19.2616,VALID,71,VALID,0.0641741,
2008-02-03, 01:03:01,VALID,916.671,VALID,0.2,VALID,100,VALID,-0.0679233,VALID,19.2516,VALID,71,VALID,0.352865,
2008-02-03, 01:04:00,VALID,916.631,VALID,0,VALID,100,VALID,-0.0849042,VALID,19.2521,VALID,71,VALID,0.424782,
2008-02-03, 01:05:00,VALID,916.603,VALID,0,VALID,100,VALID,-0.101885,VALID,19.2588,VALID,71,VALID,0.417151,
2008-02-03, 01:06:01,VALID,916.589,VALID,0,VALID,100,VALID,-0.0849042,VALID,19.2685,VALID,71,VALID,0,
2008-02-03, 01:07:01,VALID,916.582,VALID,0,VALID,99.988,VALID,-0.0849042,VALID,19.278,VALID,71,VALID,0,
2008-02-03, 01:08:01,VALID,916.562,VALID,0,VALID,99.999,VALID,-0.101885,VALID,19.2972,VALID,71,VALID,0,
2008-02-03, 01:09:01,VALID,916.527,VALID,0,VALID,99.999,VALID,-0.0679233,VALID,19.323,VALID,71,VALID,0,
2008-02-03, 01:10:01,VALID,916.505,VALID,0,VALID,99.9964,VALID,-0.0849042,VALID,19.3522,VALID,71,VALID,0,
2008-02-03, 01:11:01,VALID,916.489,VALID,0,VALID,100,VALID,-0.0849042,VALID,19.3621,VALID,71,VALID,0,
2008-02-03, 01:12:01,VALID,916.458,VALID,0,VALID,99.9901,VALID,-0.0679233,VALID,19.3746,VALID,71,VALID,0,
2008-02-03, 01:13:01,VALID,916.438,VALID,0,VALID,99.7943,VALID,-0.0169808,VALID,19.3574,VALID,71,VALID,0,
2008-02-03, 01:14:00,VALID,916.423,VALID,0,VALID,99.821,VALID,0.0169808,VALID,19.3412,VALID,71,VALID,0,
2008-02-03, 01:15:00,VALID,916.424,VALID,0,VALID,99.9214,VALID,0,VALID,19.3612,VALID,71,VALID,0,
2008-02-03, 01:16:00,VALID,916.393,VALID,0,VALID,99.9797,VALID,0,VALID,19.3706,VALID,71,VALID,0,
2008-02-03, 01:17:00,VALID,916.395,VALID,0,VALID,99.9964,VALID,-0.0169808,VALID,19.3804,VALID,106,VALID,0,
2008-02-03, 01:18:00,VALID,916.377,VALID,0,VALID,100,VALID,0.0339617,VALID,19.3931,VALID,118,VALID,0.209484,
2008-02-03, 01:19:00,VALID,916.376,VALID,0,VALID,100,VALID,0.0169808,VALID,19.4036,VALID,124,VALID,0.00253906,
2008-02-03, 01:20:00,VALID,916.364,VALID,0,VALID,100,VALID,0.0169808,VALID,19.3931,VALID,124,VALID,0,
2008-02-03, 01:21:00,VALID,916.37,VALID,0,VALID,100,VALID,0,VALID,19.3901,VALID,124,VALID,0,
2008-02-03, 01:22:00,VALID,916.344,VALID,0,VALID,100,VALID,-0.0339617,VALID,19.3901,VALID,124,VALID,0,
2008-02-03, 01:23:00,VALID,916.327,VALID,0,VALID,100,VALID,-0.0169808,VALID,19.4036,VALID,124,VALID,0,
2008-02-03, 01:24:00,VALID,916.318,VALID,0,VALID,100,VALID,0,VALID,19.3966,VALID,124,VALID,0,
2008-02-03, 01:25:00,VALID,916.306,VALID,0,VALID,100,VALID,0,VALID,19.4098,VALID,124,VALID,0,
2008-02-03, 01:26:00,VALID,916.307,VALID,0,VALID,100,VALID,0.0169808,VALID,19.4552,VALID,124,VALID,0,
2008-02-03, 01:27:00,VALID,916.292,VALID,0,VALID,100,VALID,0,VALID,19.4517,VALID,124,VALID,0,
2008-02-03, 01:28:00,VALID,916.267,VALID,0,VALID,100,VALID,0,VALID,19.4483,VALID,124,VALID,0,
2008-02-03, 01:29:00,VALID,916.251,VALID,0,VALID,100,VALID,0,VALID,19.435,VALID,124,VALID,0,
2008-02-03, 01:30:00,VALID,916.229,VALID,0,VALID,100,VALID,0.0169808,VALID,19.4385,VALID,124,VALID,0,
2008-02-03, 01:31:00,VALID,916.204,VALID,0,VALID,100,VALID,0,VALID,19.4063,VALID,124,VALID,0,
2008-02-03, 01:32:00,VALID,916.176,VALID,0,VALID,100,VALID,0,VALID,19.3574,VALID,124,VALID,0,
2008-02-03, 01:33:00,VALID,916.164,VALID,0,VALID,100,VALID,0,VALID,19.3512,VALID,124,VALID,0,
2008-02-03, 01:34:00,VALID,916.147,VALID,0,VALID,100,VALID,0.0169808,VALID,19.3215,VALID,124,VALID,0,
2008-02-03, 01:35:00,VALID,916.137,VALID,0,VALID,100,VALID,0.0339617,VALID,19.2958,VALID,124,VALID,0,
2008-02-03, 01:36:00,VALID,916.127,VALID,0,VALID,100,VALID,0,VALID,19.2828,VALID,124,VALID,0,
2008-02-03, 01:37:00,VALID,916.116,VALID,0,VALID,100,VALID,-0.0169808,VALID,19.2633,VALID,124,VALID,0,
2008-02-03, 01:38:00,VALID,916.113,VALID,0,VALID,100,VALID,0.0169808,VALID,19.2469,VALID,124,VALID,0,
2008-02-03, 01:39:00,VALID,916.109,VALID,0,VALID,100,VALID,0.0339617,VALID,19.2541,VALID,124,VALID,0,
2008-02-03, 01:40:00,VALID,916.092,VALID,0,VALID,100,VALID,0.0169808,VALID,19.2371,VALID,124,VALID,0,
2008-02-03, 01:41:00,VALID,916.085,VALID,0,VALID,100,VALID,0.0169808,VALID,19.2214,VALID,69,VALID,0.428993,
2008-02-03, 01:42:00,VALID,916.074,VALID,0,VALID,100,VALID,0.0169808,VALID,19.176,VALID,18,VALID,0.65532,
2008-02-03, 01:43:00,VALID,916.07,VALID,0,VALID,100,VALID,0,VALID,19.16,VALID,17,VALID,0.541853,
2008-02-03, 01:44:00,VALID,916.06,VALID,0,VALID,100,VALID,-0.0169808,VALID,19.1533,VALID,21,VALID,0.798328,
2008-02-03, 01:45:00,VALID,916.056,VALID,0,VALID,100,VALID,0,VALID,19.1306,VALID,24,VALID,0.370998,
2008-02-03, 01:46:00,VALID,916.056,VALID,0,VALID,100,VALID,-0.0339617,VALID,19.1535,VALID,24,VALID,0.00590701,
2008-02-03, 01:47:00,VALID,916.055,VALID,0,VALID,100,VALID,0,VALID,19.1528,VALID,18,VALID,0.327148,
2008-02-03, 01:48:00,VALID,916.037,VALID,0,VALID,100,VALID,0,VALID,19.1563,VALID,17,VALID,0.213356,
2008-02-03, 01:49:00,VALID,916.022,VALID,0,VALID,100,VALID,0,VALID,19.1625,VALID,17,VALID,0.0608259,
2008-02-03, 01:50:00,VALID,916.009,VALID,0,VALID,100,VALID,0,VALID,19.1468,VALID,17,VALID,0.0012718,
2008-02-03, 01:51:00,VALID,916,VALID,0,VALID,100,VALID,-0.0169808,VALID,19.1503,VALID,17,VALID,0,
2008-02-03, 01:52:00,VALID,915.98,VALID,0,VALID,100,VALID,0,VALID,19.154,VALID,17,VALID,0,
2008-02-03, 01:53:00,VALID,915.97,VALID,0,VALID,100,VALID,-0.0339617,VALID,19.1605,VALID,17,VALID,0,
2008-02-03, 01:54:00,VALID,915.951,VALID,0,VALID,100,VALID,0,VALID,19.1528,VALID,17,VALID,0,
2008-02-03, 01:55:00,VALID,915.943,VALID,0,VALID,100,VALID,-0.0169808,VALID,19.1668,VALID,17,VALID,0,
2008-02-03, 01:56:00,VALID,915.958,VALID,0,VALID,100,VALID,0.0169808,VALID,19.1658,VALID,17,VALID,0,
2008-02-03, 01:57:00,VALID,915.935,VALID,0,VALID,100,VALID,-0.0169808,VALID,19.1857,VALID,17,VALID,0,
2008-02-03, 01:58:00,VALID,915.939,VALID,0,VALID,100,VALID,0,VALID,19.2152,VALID,17,VALID,0,
2008-02-03, 01:59:00,VALID,915.932,VALID,0,VALID,100,VALID,0.0169808,VALID,19.2152,VALID,17,VALID,0,
2008-02-03, 02:00:00,VALID,915.934,VALID,0,VALID,100,VALID,-0.0339617,VALID,19.2084,VALID,17,VALID,0,
2008-02-03, 02:01:00,VALID,915.931,VALID,0,VALID,100,VALID,-0.0339617,VALID,19.2184,VALID,17,VALID,0,
2008-02-03, 02:02:00,VALID,915.929,VALID,0,VALID,100,VALID,0.0169808,VALID,19.2147,VALID,17,VALID,0,
2008-02-03, 02:03:00,VALID,915.915,VALID,0,VALID,100,VALID,-0.0169808,VALID,19.2244,VALID,17,VALID,0,
2008-02-03, 02:04:00,VALID,915.892,VALID,0,VALID,100,VALID,0,VALID,19.2279,VALID,17,VALID,0,
2008-02-03, 02:05:00,VALID,915.867,VALID,0,VALID,100,VALID,0,VALID,19.2411,VALID,17,VALID,0,
2008-02-03, 02:06:00,VALID,915.858,VALID,0,VALID,100,VALID,-0.0339617,VALID,19.2441,VALID,17,VALID,0,
2008-02-03, 02:07:00,VALID,915.839,VALID,0,VALID,100,VALID,-0.0169808,VALID,19.2506,VALID,17,VALID,0,
2008-02-03, 02:08:00,VALID,915.808,VALID,0,VALID,100,VALID,0,VALID,19.2603,VALID,17,VALID,0,
2008-02-03, 02:09:00,VALID,915.782,VALID,0,VALID,100,VALID,0.0169808,VALID,19.2666,VALID,17,VALID,0,
2008-02-03, 02:10:00,VALID,915.772,VALID,0,VALID,100,VALID,0,VALID,19.2307,VALID,17,VALID,0,
2008-02-03, 02:11:00,VALID,915.762,VALID,0,VALID,100,VALID,0,VALID,19.1885,VALID,17,VALID,0,
2008-02-03, 02:12:00,VALID,915.734,VALID,0,VALID,100,VALID,0,VALID,19.1825,VALID,17,VALID,0,
2008-02-03, 02:13:00,VALID,915.728,VALID,0,VALID,100,VALID,0.0169808,VALID,19.15,VALID,17,VALID,0,
2008-02-03, 02:14:00,VALID,915.715,VALID,0,VALID,100,VALID,-0.0339617,VALID,19.1243,VALID,17,VALID,0,
2008-02-03, 02:15:00,VALID,915.694,VALID,0,VALID,100,VALID,-0.0509425,VALID,19.0949,VALID,17,VALID,0,
2008-02-03, 02:16:00,VALID,915.678,VALID,0,VALID,100,VALID,-0.0169808,VALID,19.0784,VALID,17,VALID,0,
2008-02-03, 02:17:00,VALID,915.65,VALID,0,VALID,100,VALID,0,VALID,19.0949,VALID,17,VALID,0,
2008-02-03, 02:18:00,VALID,915.636,VALID,0,VALID,100,VALID,0,VALID,19.0887,VALID,17,VALID,0,
2008-02-03, 02:19:00,VALID,915.617,VALID,0,VALID,100,VALID,-0.0169808,VALID,19.0917,VALID,17,VALID,0,
2008-02-03, 02:20:00,VALID,915.604,VALID,0,VALID,100,VALID,-0.0169808,VALID,19.1111,VALID,17,VALID,0,
2008-02-03, 02:21:00,VALID,915.597,VALID,0,VALID,100,VALID,-0.0339617,VALID,19.1436,VALID,17,VALID,0,
2008-02-03, 02:22:00,VALID,915.589,VALID,0,VALID,100,VALID,-0.0679233,VALID,19.1076,VALID,17,VALID,0,
2008-02-03, 02:23:00,VALID,915.586,VALID,0,VALID,100,VALID,-0.0169808,VALID,19.0986,VALID,17,VALID,0,
2008-02-03, 02:24:00,VALID,915.578,VALID,0,VALID,100,VALID,0,VALID,19.0912,VALID,17,VALID,0,
2008-02-03, 02:25:00,VALID,915.58,VALID,0,VALID,100,VALID,-0.0339617,VALID,19.1054,VALID,17,VALID,0,
2008-02-03, 02:26:00,VALID,915.591,VALID,0,VALID,100,VALID,-0.0169808,VALID,19.0622,VALID,17,VALID,0,
2008-02-03, 02:27:00,VALID,915.568,VALID,0,VALID,100,VALID,0,VALID,19.0492,VALID,17,VALID,0.406613,
2008-02-03, 02:28:00,VALID,915.545,VALID,0,VALID,100,VALID,-0.0169808,VALID,19.0525,VALID,21,VALID,0.360618,
2008-02-03, 02:29:00,VALID,915.526,VALID,0,VALID,100,VALID,-0.0169808,VALID,19.0428,VALID,21,VALID,0.00285823,
2008-02-03, 02:30:00,VALID,915.528,VALID,0,VALID,100,VALID,0,VALID,19.0428,VALID,21,VALID,0,
2008-02-03, 02:31:00,VALID,915.51,VALID,0,VALID,100,VALID,-0.0169808,VALID,19.043,VALID,21,VALID,0,
2008-02-03, 02:32:00,VALID,915.484,VALID,0,VALID,100,VALID,-0.0509425,VALID,19.0492,VALID,22,VALID,0.550509,
2008-02-03, 02:33:00,VALID,915.475,VALID,0,VALID,100,VALID,-0.0169808,VALID,19.0136,VALID,26,VALID,0.88244,
2008-02-03, 02:34:00,VALID,915.458,VALID,0,VALID,100,VALID,0,VALID,19.0138,VALID,41,VALID,0.813262,
2008-02-03, 02:35:00,VALID,915.467,VALID,0,VALID,100,VALID,-0.0169808,VALID,19.0006,VALID,39,VALID,0.755022,
2008-02-03, 02:36:00,VALID,915.471,VALID,0,VALID,100,VALID,-0.0169808,VALID,19.014,VALID,37,VALID,0.331287,
2008-02-03, 02:37:00,VALID,915.463,VALID,0,VALID,100,VALID,0,VALID,19.0198,VALID,35,VALID,0.380149,
2008-02-03, 02:38:00,VALID,915.459,VALID,0,VALID,100,VALID,-0.0169808,VALID,19.0462,VALID,35,VALID,0.218936,
2008-02-03, 02:39:00,VALID,915.462,VALID,0,VALID,100,VALID,0,VALID,19.0592,VALID,35,VALID,0.399962,
2008-02-03, 02:40:00,VALID,915.464,VALID,0,VALID,99.9298,VALID,0,VALID,19.0847,VALID,40,VALID,0.74535,
2008-02-03, 02:41:00,VALID,915.458,VALID,0,VALID,99.7904,VALID,0,VALID,19.0944,VALID,23,VALID,0.342634,
2008-02-03, 02:42:00,VALID,915.463,VALID,0,VALID,99.8477,VALID,0,VALID,19.1139,VALID,18,VALID,0,
2008-02-03, 02:43:00,VALID,915.455,VALID,0,VALID,99.6595,VALID,0,VALID,19.1174,VALID,18,VALID,0,
2008-02-03, 02:44:00,VALID,915.451,VALID,0,VALID,99.5221,VALID,-0.0169808,VALID,19.1106,VALID,18,VALID,0.0604539,
2008-02-03, 02:45:00,VALID,915.452,VALID,0,VALID,99.4789,VALID,-0.0169808,VALID,19.0947,VALID,18,VALID,0.0150391,
2008-02-03, 02:46:00,VALID,915.44,VALID,0,VALID,99.4916,VALID,0,VALID,19.0912,VALID,18,VALID,0,
2008-02-03, 02:47:00,VALID,915.45,VALID,0,VALID,99.545,VALID,-0.0339617,VALID,19.0847,VALID,18,VALID,0,
2008-02-03, 02:48:00,VALID,915.446,VALID,0,VALID,99.4357,VALID,0,VALID,19.0655,VALID,18,VALID,0.031436,
2008-02-03, 02:49:00,VALID,915.432,VALID,0,VALID,99.4446,VALID,0,VALID,19.0525,VALID,18,VALID,0.0795272,
2008-02-03, 02:50:00,VALID,915.436,VALID,0,VALID,99.4128,VALID,-0.0169808,VALID,19.0363,VALID,18,VALID,0,
2008-02-03, 02:51:00,VALID,915.417,VALID,0,VALID,99.3301,VALID,0,VALID,19.033,VALID,18,VALID,0.113377,
2008-02-03, 02:52:00,VALID,915.423,VALID,0,VALID,99.2665,VALID,0.0169808,VALID,19.0497,VALID,22,VALID,0.234896,
2008-02-03, 02:53:00,VALID,915.424,VALID,0,VALID,99.3161,VALID,-0.0169808,VALID,19.0787,VALID,30,VALID,0.0585069,
2008-02-03, 02:54:00,VALID,915.418,VALID,0,VALID,99.442,VALID,-0.0339617,VALID,19.1338,VALID,30,VALID,0,
2008-02-03, 02:55:00,VALID,915.413,VALID,0,VALID,99.1928,VALID,0,VALID,19.147,VALID,26,VALID,0.151989,
2008-02-03, 02:56:00,VALID,915.385,VALID,0,VALID,98.8851,VALID,0,VALID,19.1333,VALID,17,VALID,0.962754,
2008-02-03, 02:57:00,VALID,915.361,VALID,0,VALID,98.632,VALID,0,VALID,19.1533,VALID,18,VALID,0.832217,
2008-02-03, 02:58:00,VALID,915.362,VALID,0,VALID,98.6002,VALID,-0.0169808,VALID,19.176,VALID,23,VALID,0.904726,
2008-02-03, 02:59:00,VALID,915.353,VALID,0,VALID,98.4591,VALID,0,VALID,19.169,VALID,16,VALID,0.595465,
2008-02-03, 03:00:00,VALID,915.354,VALID,0,VALID,98.3472,VALID,0,VALID,19.2504,VALID,23,VALID,0.0446429,
2008-02-03, 03:01:00,VALID,915.34,VALID,0,VALID,97.9326,VALID,-0.0169808,VALID,19.2763,VALID,343,VALID,0.694222,
2008-02-03, 03:02:00,VALID,915.339,VALID,0,VALID,98.0305,VALID,0,VALID,19.3023,VALID,326,VALID,0.62407,
2008-02-03, 03:03:00,VALID,915.334,VALID,0,VALID,98.0649,VALID,0.0169808,VALID,19.328,VALID,326,VALID,0.139137,
2008-02-03, 03:04:00,VALID,915.344,VALID,0,VALID,98.1895,VALID,0,VALID,19.3444,VALID,326,VALID,0.0639881,
2008-02-03, 03:05:00,VALID,915.352,VALID,0,VALID,98.1819,VALID,0,VALID,19.3642,VALID,326,VALID,0.156428,
2008-02-03, 03:06:00,VALID,915.366,VALID,0,VALID,98.1348,VALID,0.0169808,VALID,19.3447,VALID,326,VALID,0.0626905,
2008-02-03, 03:07:00,VALID,915.376,VALID,0,VALID,98.2111,VALID,-0.0169808,VALID,19.325,VALID,325,VALID,0.171148,
2008-02-03, 03:08:00,VALID,915.37,VALID,0,VALID,98.3739,VALID,-0.0339617,VALID,19.2993,VALID,325,VALID,0.0207741,
2008-02-03, 03:09:00,VALID,915.366,VALID,0,VALID,98.7414,VALID,0,VALID,19.302,VALID,325,VALID,0.00436047,
2008-02-03, 03:10:00,VALID,915.359,VALID,0,VALID,98.8494,VALID,-0.0339617,VALID,19.3055,VALID,325,VALID,0,
2008-02-03, 03:11:00,VALID,915.339,VALID,0,VALID,98.9181,VALID,-0.0169808,VALID,19.2995,VALID,325,VALID,0,
2008-02-03, 03:12:00,VALID,915.33,VALID,0,VALID,98.9931,VALID,0,VALID,19.2731,VALID,325,VALID,0,
2008-02-03, 03:13:00,VALID,915.329,VALID,0,VALID,99.2131,VALID,-0.0169808,VALID,19.2666,VALID,325,VALID,0,
2008-02-03, 03:14:00,VALID,915.322,VALID,0,VALID,99.1305,VALID,0,VALID,19.2501,VALID,325,VALID,0,
2008-02-03, 03:15:00,VALID,915.3,VALID,0,VALID,99.1953,VALID,0,VALID,19.2309,VALID,325,VALID,0,
2008-02-03, 03:16:00,VALID,915.301,VALID,0,VALID,99.3912,VALID,0.0339617,VALID,19.2142,VALID,325,VALID,0,
2008-02-03, 03:17:00,VALID,915.288,VALID,0,VALID,99.4191,VALID,0,VALID,19.2112,VALID,325,VALID,0,
2008-02-03, 03:18:00,VALID,915.268,VALID,0,VALID,99.4865,VALID,-0.0169808,VALID,19.2017,VALID,325,VALID,0,
2008-02-03, 03:19:00,VALID,915.286,VALID,0,VALID,99.6468,VALID,0.0339617,VALID,19.2012,VALID,325,VALID,0,
2008-02-03, 03:20:00,VALID,915.263,VALID,0,VALID,99.4751,VALID,0.0169808,VALID,19.1593,VALID,325,VALID,0,
2008-02-03, 03:21:00,VALID,915.255,VALID,0,VALID,99.5628,VALID,0,VALID,19.1174,VALID,325,VALID,0,
2008-02-03, 03:22:00,VALID,915.232,VALID,0,VALID,99.7154,VALID,0,VALID,19.0882,VALID,325,VALID,0,
2008-02-03, 03:23:00,VALID,915.242,VALID,0,VALID,99.5895,VALID,0,VALID,19.0235,VALID,325,VALID,0,
2008-02-03, 03:24:00,VALID,915.243,VALID,0,VALID,99.7141,VALID,0.0169808,VALID,18.9909,VALID,325,VALID,0,
2008-02-03, 03:25:00,VALID,915.265,VALID,0,VALID,99.8489,VALID,0,VALID,18.9811,VALID,325,VALID,0,
2008-02-03, 03:26:00,VALID,915.257,VALID,0,VALID,99.9392,VALID,0,VALID,18.9879,VALID,325,VALID,0,
2008-02-03, 03:27:00,VALID,915.262,VALID,0,VALID,99.9341,VALID,0,VALID,18.9876,VALID,325,VALID,0,
2008-02-03, 03:28:00,VALID,915.271,VALID,0,VALID,99.9606,VALID,0,VALID,18.9679,VALID,325,VALID,0,
2008-02-03, 03:29:00,VALID,915.251,VALID,0,VALID,100,VALID,0.0169808,VALID,18.9776,VALID,325,VALID,0,
2008-02-03, 03:30:00,VALID,915.242,VALID,0,VALID,99.999,VALID,-0.0169808,VALID,18.9744,VALID,325,VALID,0,
2008-02-03, 03:31:00,VALID,915.233,VALID,0,VALID,99.9189,VALID,-0.0339617,VALID,18.9649,VALID,325,VALID,0,
2008-02-03, 03:32:00,VALID,915.224,VALID,0,VALID,99.765,VALID,0,VALID,18.919,VALID,325,VALID,0,
2008-02-03, 03:33:00,VALID,915.213,VALID,0,VALID,99.7803,VALID,-0.0169808,VALID,18.8908,VALID,325,VALID,0,
2008-02-03, 03:34:00,VALID,915.202,VALID,0,VALID,99.8731,VALID,0,VALID,18.8743,VALID,325,VALID,0,
2008-02-03, 03:35:00,VALID,915.21,VALID,0,VALID,99.9542,VALID,0.0169808,VALID,18.8444,VALID,327,VALID,0.211128,
2008-02-03, 03:36:00,VALID,915.206,VALID,0,VALID,99.9967,VALID,0.0169808,VALID,18.8509,VALID,340,VALID,0.392912,
2008-02-03, 03:37:00,VALID,915.184,VALID,0,VALID,100,VALID,0,VALID,18.8609,VALID,340,VALID,0,
2008-02-03, 03:38:00,VALID,915.189,VALID,0,VALID,100,VALID,0,VALID,18.8966,VALID,340,VALID,0,
2008-02-03, 03:39:00,VALID,915.187,VALID,0,VALID,100,VALID,0.0169808,VALID,18.8901,VALID,340,VALID,0,
2008-02-03, 03:40:00,VALID,915.19,VALID,0,VALID,100,VALID,0,VALID,18.9,VALID,339,VALID,0,
2008-02-03, 03:41:00,VALID,915.185,VALID,0,VALID,100,VALID,-0.0169808,VALID,18.9,VALID,336,VALID,0,
2008-02-03, 03:42:00,VALID,915.19,VALID,0,VALID,100,VALID,0.0169808,VALID,18.9163,VALID,336,VALID,0,
2008-02-03, 03:43:00,VALID,915.192,VALID,0,VALID,100,VALID,-0.0509425,VALID,18.9227,VALID,336,VALID,0,
2008-02-03, 03:44:00,VALID,915.196,VALID,0,VALID,100,VALID,0,VALID,18.9355,VALID,336,VALID,0,
2008-02-03, 03:45:00,VALID,915.186,VALID,0,VALID,100,VALID,-0.0169808,VALID,18.939,VALID,336,VALID,0,
2008-02-03, 03:46:00,VALID,915.165,VALID,0,VALID,100,VALID,-0.0509425,VALID,18.9163,VALID,338,VALID,0,
2008-02-03, 03:47:00,VALID,915.161,VALID,0,VALID,100,VALID,-0.0339617,VALID,18.8933,VALID,340,VALID,0.015625,
2008-02-03, 03:48:00,VALID,915.153,VALID,0,VALID,100,VALID,-0.0339617,VALID,18.8803,VALID,340,VALID,0.0271739,
2008-02-03, 03:49:00,VALID,915.155,VALID,0,VALID,100,VALID,0,VALID,18.8933,VALID,340,VALID,0,
2008-02-03, 03:50:00,VALID,915.162,VALID,0,VALID,100,VALID,-0.0679233,VALID,18.9068,VALID,340,VALID,0.145712,